Regional Weather Roundup
Issued by NWS

Home | Current Version | Previous Version | Text Only | Print | Product List | Glossary Off
Versions: 1 2 3 4 5 6 7 8 9 10 11 12 13 14 15 16 17 18 19 20 21 22 23 24 25 26 27 28 29 30 31 32 33 34 35 36 37 38 39 40 41 42 43 44 45 46 47 48 49 50

000
ASUS43 KDTX 260010
RWRMI
MICHIGAN HOURLY REGIONAL WEATHER ROUNDUP
NATIONAL WEATHER SERVICE DETROIT/PONTIAC MI
800 PM EDT SUN JUN 25 2017

NOTE: "FAIR" INDICATES FEW OR NO CLOUDS BELOW 12,000 FEET WITH NO
SIGNIFICANT WEATHER AND/OR OBSTRUCTION TO VISIBILITY.

MIZ047>049-052>055-059>063-066>070-074>076-081>083-260100-
SOUTHEAST LOWER MICHIGAN

CITY           SKY/WX    TMP DP  RH WIND       PRES   REMARKS
ADRIAN         MOSUNNY   69  44  40 NW9       30.05S
6HR MIN TEMP:  68; 6HR MAX TEMP:  72;

ALMA           CLOUDY    64  53  67 W13G20    30.02R
ANN ARBOR      SUNNY     68  45  43 W14G21    30.03R
BAD AXE        CLOUDY    62  55  77 W7        29.98S
6HR MIN TEMP:  61; 6HR MAX TEMP:  66;

CARO           CLOUDY    60  53  77 W10       29.99S
DETROIT CITY   PTSUNNY   68  50  52 NW9       30.02R
6HR MIN TEMP:  67; 6HR MAX TEMP:  72;

DETROIT        PTSUNNY   70  47  43 W15       30.03R
6HR MIN TEMP:  68; 6HR MAX TEMP:  73;

FLINT          CLOUDY    62  51  67 W13       30.02S
6HR MIN TEMP:  59; 6HR MAX TEMP:  68; 6HR PCP: TRACE;

GROSSE ILE     PTSUNNY   69  47  45 W9        30.02R
6HR MIN TEMP:  68; 6HR MAX TEMP:  73;

HILLSDALE      SUNNY     64  41  42 W9        30.05S
HOWELL         CLOUDY    65  46  50 W8        30.03R
6HR MIN TEMP:  64; 6HR MAX TEMP:  69;


CITY           SKY/WX    TMP DP  RH WIND       PRES   REMARKS
JACKSON        SUNNY     67  43  41 W10       30.04R
6HR MIN TEMP:  66; 6HR MAX TEMP:  71;

LAMBERTVILLE   PTSUNNY   70  44  39 W8        30.03S
6HR MIN TEMP:  68; 6HR MAX TEMP:  72;

LANSING        PTSUNNY   68  46  45 W16G22    30.04R
6HR MIN TEMP:  67; 6HR MAX TEMP:  72;

LAPEER         CLOUDY    64  49  58 W8        30.01S
6HR MIN TEMP:  61; 6HR MAX TEMP:  68;

MASON          MOSUNNY   66  48  51 W14       30.04R
MONROE         PTSUNNY   70  47  44 W10G16    30.03R
6HR MIN TEMP:  69; 6HR MAX TEMP:  73;

MT. CLEMENS    PTSUNNY   63  55  74 NW12G24   30.00R
6HR MIN TEMP:  61; 6HR MAX TEMP:  72; 6HR PCP:  0.08;

PONTIAC        LGT RAIN  59  55  87 W6        30.02R
6HR MIN TEMP:  59; 6HR MAX TEMP:  68; 6HR PCP:  0.06;

PORT HOPE        N/A     64  54  69 W8        29.95F
6HR MIN TEMP:  63; 6HR MAX TEMP:  68;

PORT HURON     CLOUDY    63  48  59 W3        30.01R
TRI CITIES     CLOUDY    63  53  70 W8        30.01R
6HR MIN TEMP:  58; 6HR MAX TEMP:  66; 6HR PCP:  0.33;

MIDLAND        CLOUDY    64  51  63 W7        30.00R
6HR MIN TEMP:  61; 6HR MAX TEMP:  66; 6HR PCP:  0.03;

TROY           PTSUNNY   64  52  65 NW7       30.05R
SAGINAW HB     CLOUDY    63  46  55 W8        30.00R
$$
MIZ043>046-050>051-056>058-064>065-071>073-077>080-260100-
SOUTHWEST LOWER MICHIGAN

CITY           SKY/WX    TMP DP  RH WIND       PRES   REMARKS
BATTLE CREEK   SUNNY     66  45  46 W12       30.06R
6HR MIN TEMP:  66; 6HR MAX TEMP:  72;

BENTON HARBOR  MOSUNNY   68  46  45 W10       30.06S
6HR MIN TEMP:  68; 6HR MAX TEMP:  72;

BIG RAPIDS     CLOUDY    63  48  59 NW6G18    30.01R
6HR MIN TEMP:  58; 6HR MAX TEMP:  64;

COLDWATER      MOSUNNY   67  39  36 W9        30.06R
6HR MIN TEMP:  67; 6HR MAX TEMP:  72;

FREMONT        CLOUDY    62  50  65 W5        30.03R
6HR MIN TEMP:  61; 6HR MAX TEMP:  67;

HOLLAND        SUNNY     67  51  56 W10       30.05S
6HR MIN TEMP:  67; 6HR MAX TEMP:  70;

GRAND RAPIDS   PTSUNNY   66  49  54 W16       30.03S
6HR MIN TEMP:  65; 6HR MAX TEMP:  69;

IONIA          PTSUNNY   66  48  52 W7        30.03R
6HR MIN TEMP:  64; 6HR MAX TEMP:  68;

KALAMAZOO      MOSUNNY   68  42  38 W12       30.06R
6HR MIN TEMP:  67; 6HR MAX TEMP:  72;

LUDINGTON      CLOUDY    60  54  78 SW5       30.01S
6HR MIN TEMP:  60; 6HR MAX TEMP:  64;

MARSHALL       MOSUNNY   68  43  40 W9        30.05R
6HR MIN TEMP:  66; 6HR MAX TEMP:  73;

MOUNT PLEASANT PTSUNNY   63  48  58 W10       30.00R
6HR MIN TEMP:  61; 6HR MAX TEMP:  65; 6HR PCP:  0.01;

MUSKEGON       MOSUNNY   66  51  58 W6        30.04R
6HR MIN TEMP:  62; 6HR MAX TEMP:  68; 6HR PCP: TRACE;

SOUTH HAVEN    MOSUNNY   68  50  53 W7        30.06R
$$
MIZ016>042-260100-
NORTHERN LOWER MICHIGAN

CITY           SKY/WX    TMP DP  RH WIND       PRES   REMARKS
ALPENA         PTSUNNY   60  57  89 CALM      29.98R
6HR MIN TEMP:  58; 6HR MAX TEMP:  66; 6HR PCP:  0.28;

BEAVER ISLAND  CLOUDY    59  54  84 W7        29.98F
6HR MIN TEMP:  59; 6HR MAX TEMP:  66;

BELLAIRE       PTSUNNY   62  51  68 NW3       29.98S
6HR MIN TEMP:  62; 6HR MAX TEMP:  64;

CADILLAC       PTSUNNY   60  50  69 W10G18    30.00R
CHARLEVOIX     SUNNY     60  53  76 W9        30.01R
FRANKFORT      MOSUNNY   60  51  73 CALM      30.00S
GAYLORD        MOSUNNY   63  46  54 W13       29.98R
6HR MIN TEMP:  62; 6HR MAX TEMP:  66;

GRAYLING       CLOUDY    63  49  60 W8        29.99R
HARBOR SPRINGS CLOUDY    59  55  84 W5        29.99R
HOUGHTON LAKE  CLOUDY    61  50  67 W9        29.99S
6HR MIN TEMP:  58; 6HR MAX TEMP:  63; 6HR PCP:  0.02;

MANISTEE       CLOUDY    61  53  75 SW3       30.00S
OSCODA         CLOUDY    59  55  87 W5        29.96S
6HR MIN TEMP:  59; 6HR MAX TEMP:  71; 6HR PCP:  0.01;

PELLSTON       CLOUDY    62  51  67 NW8       29.98R
6HR MIN TEMP:  63; 6HR MAX TEMP:  70;

ROGERS CITY    MOSUNNY   60  51  72 N5        29.98R
TRAVERSE CITY  PTSUNNY   64  50  60 W9        29.97S
6HR MIN TEMP:  60; 6HR MAX TEMP:  67; 6HR PCP:  0.01;

$$
MIZ007>008-015-260100-
EASTERN UPPER MICHIGAN

CITY           SKY/WX    TMP DP  RH WIND       PRES   REMARKS
KINROSS        CLOUDY    59  51  75 N6        29.98S
6HR MIN TEMP:  58; 6HR MAX TEMP:  69;

MACKINAC ISLAN LGT RAIN  58  55  89 W8        29.98R
6HR MIN TEMP:  58; 6HR MAX TEMP:  65;

NEWBERRY       CLOUDY    58  50  73 N6        29.98R
6HR MIN TEMP:  58; 6HR MAX TEMP:  67; 6HR PCP:  0.03;

S. S. MARIE    CLOUDY    60  51  72 E5        29.96S
6HR MIN TEMP:  58; 6HR MAX TEMP:  70; 6HR PCP:  0.27;

MUNISING         N/A     52  48  86 N6        29.99S
6HR MIN TEMP:  52; 6HR MAX TEMP:  59;

$$
MIZ004>006-011>014-085-260100-
CENTRAL UPPER MICHIGAN

CITY           SKY/WX    TMP DP  RH WIND       PRES   REMARKS
MANISTIQUE     CLOUDY    62  52  70 N3        29.97S
6HR MIN TEMP:  59; 6HR MAX TEMP:  67;

ESCANABA       LGT RAIN  58  56  93 W8        29.99R
6HR MIN TEMP:  57; 6HR MAX TEMP:  63; 6HR PCP:  0.32;

MENOMINEE      CLOUDY    60  56  86 NE5       30.00S
6HR MIN TEMP:  58; 6HR MAX TEMP:  69; 6HR PCP:  0.02;

SAWYER-GWINN   CLOUDY    54  48  82 NE6       30.01R
$$
MIZ001>003-009>011-084-260100-
WESTERN UPPER MICHIGAN

CITY           SKY/WX    TMP DP  RH WIND       PRES   REMARKS
IRON MOUNTAIN  LGT RAIN  55  52  89 CALM      30.00F
6HR MIN TEMP:  55; 6HR MAX TEMP:  70; 6HR PCP:  0.17;

HOUGHTON       LGT RAIN  56  50  80 S7        30.00R
6HR MIN TEMP:  56; 6HR MAX TEMP:  63; 6HR PCP: TRACE;

COPPER HARBOR    N/A     51  45  79 CALM      29.99S
6HR MIN TEMP:  47; 6HR MAX TEMP:  54;

IRONWOOD       CLOUDY    51  49  92 NW12G20   30.06R
6HR MIN TEMP:  51; 6HR MAX TEMP:  61;

$$

ABBREVIATIONS USED IN REMARKS
   TC - TEMPERATURE IN CELSIUS
  WCI - WIND CHILL INDEX
   HX - HEAT INDEX
  VSB - VISIBILITY





USA.gov is the U.S. government's official web portal to all federal, state and local government web resources and services.